Temperature
29 25 25 25 26 26 27 26 26 27 28 27 26 25 25 25 25 25 24 23 23 23 23 23 22 22 21 21 21 21 20 20 20 19 19 19 19 19 19 19 18 18 18 18
26 25 27 27 27 28 28 27 27 27 28 27 25 25 25 25 25 25 24 24 24 23 23 23 22 22 22 21 21 21 20 20 20 20 19 19 19 19 19 19 18 18 18 18
26 27 28 29 28 28 28 27 27 27 27 26 25 24 25 25 26 25 25 24 24 24 23 23 22 22 22 22 21 21 21 20 20 20 19 19 19 19 19 19 19 18 18 18
27 28 29 29 29 29 27 28 28 28 25 24 25 23 24 24 24 24 24 24 24 24 24 23 23 22 22 22 22 21 21 21 20 20 20 19 19 19 19 19 19 18 18 18
27 29 29 29 29 30 28 29 28 27 25 24 24 23 23 24 24 24 24 24 24 24 24 24 23 23 23 22 22 22 21 21 20 20 20 20 20 19 19 19 19 18 18 18
28 29 29 29 30 30 29 28 26 24 22 23 24 23 23 23 24 25 25 25 25 24 24 24 24 23 23 22 22 22 21 21 21 20 20 20 20 19 19 19 19 18 18 18
27 28 29 30 29 28 27 24 23 24 22 23 23 24 23 25 25 26 25 25 25 25 24 24 23 23 23 23 22 22 22 21 21 21 20 20 20 20 19 19 19 19 19 19
26 26 28 29 29 27 27 24 23 24 23 23 24 24 24 26 27 27 27 26 25 25 24 24 24 24 23 23 23 23 22 22 21 21 21 20 20 20 20 19 19 19 19 19
25 26 28 30 30 28 27 25 23 22 23 23 23 25 25 25 25 26 26 25 25 25 25 24 24 24 24 23 23 23 23 22 22 21 21 21 20 20 20 20 19 19 19 19
26 26 27 29 29 28 27 26 22 22 23 23 24 24 23 24 24 24 25 25 25 25 25 24 24 24 24 24 23 23 23 22 22 22 21 21 21 20 20 20 19 19 19 19
25 25 26 27 28 27 27 26 23 21 21 22 23 23 25 24 24 24 24 25 25 25 24 24 24 24 24 24 23 23 22 22 22 22 21 21 21 20 20 20 20 19 19 19
24 22 23 25 26 27 27 26 23 23 23 21 22 23 25 24 24 24 25 25 25 25 25 24 24 24 23 23 23 23 22 22 22 22 21 21 20 20 20 20 20 19 19 19
24 21 22 24 24 26 27 26 24 21 21 21 22 24 25 24 24 25 25 25 24 24 24 24 24 23 23 23 23 22 22 22 22 21 21 21 20 20 20 20 20 19 19 19
23 20 21 23 23 24 26 26 26 23 21 22 23 24 24 24 23 24 24 24 24 24 24 24 23 23 23 23 23 22 22 22 22 21 21 21 20 20 20 20 19 19 19 19
22 22 23 23 24 26 26 26 26 25 23 23 24 23 23 23 23 24 24 24 24 23 23 23 23 23 23 22 22 22 22 22 21 21 21 20 20 20 20 20 19 19 19 19
20 21 22 23 25 26 26 26 26 26 25 24 24 23 23 24 24 24 24 23 23 23 23 23 23 23 23 22 22 22 22 21 21 21 21 20 20 20 20 19 19 19 19 19
19 20 20 21 23 24 24 25 26 25 25 25 24 23 22 22 22 23 23 23 23 23 23 23 23 23 23 22 22 22 21 21 21 21 20 20 20 20 20 19 19 19 19 18
19 18 17 19 22 23 23 24 25 25 24 24 23 23 23 23 23 24 24 24 24 24 24 23 23 23 23 22 22 22 21 21 21 21 20 20 20 20 19 19 19 19 19 18
19 19 18 18 20 21 23 25 25 24 23 23 22 23 23 23 23 22 23 24 24 24 24 23 23 23 23 22 22 21 21 21 20 20 20 20 20 19 19 19 19 19 18 18
18 17 18 18 20 21 22 24 25 24 22 23 22 22 22 22 20 20 23 23 24 23 23 23 23 22 22 22 22 21 21 20 20 20 20 20 20 19 19 19 19 18 18 18
19 18 18 18 19 20 21 23 24 22 21 22 23 23 22 21 21 23 23 23 23 23 23 23 22 22 22 21 21 21 21 20 20 20 20 19 19 19 19 18 18 18 18 18
18 17 17 17 18 19 21 22 21 20 22 22 23 23 23 23 23 23 23 23 23 22 22 22 22 22 21 21 21 21 20 20 20 19 19 19 19 19 18 18 18 18 17 17
17 17 16 17 18 19 21 22 22 22 22 22 22 22 22 22 22 22 22 22 22 22 22 22 21 21 21 21 20 20 20 20 19 19 19 18 18 18 18 18 17 17 17 17
17 16 16 16 18 19 20 21 22 22 22 22 22 22 22 22 22 22 22 21 21 21 21 21 21 20 20 20 20 20 19 19 19 18 18 18 18 17 17 17 17 17 17 17
16 16 15 16 16 18 20 20 21 21 21 21 21 22 22 21 21 21 21 21 20 20 20 20 20 20 20 20 19 19 19 18 18 18 18 17 17 17 17 17 16 16 17 16
15 15 15 15 16 16 18 19 20 20 21 21 21 21 21 21 20 20 20 20 20 20 19 19 19 19 19 19 19 18 18 18 18 17 17 17 17 16 16 16 16 16 16 16
Wind_Speed
1 4 2 7 7 7 6 5 5 5 5 6 7 8 10 9 8 9 9 10 10 9 9 10 10 10 8 7 6 6 5 4 4 3 3 3 2 1 1 2 4 5 5 6
5 3 9 7 5 4 4 4 3 2 4 6 6 5 6 9 12 12 13 12 11 9 8 9 9 9 8 8 7 6 6 5 4 3 3 3 3 2 2 2 2 4 5 6
6 8 6 5 6 5 4 5 5 5 2 4 6 1 3 5 6 8 10 11 11 13 12 11 10 9 9 8 8 7 6 5 4 4 3 3 3 2 2 1 1 2 4 5
5 6 4 4 4 5 4 5 6 6 5 2 4 3 5 6 6 9 10 11 12 11 11 11 11 10 10 10 8 8 7 6 5 5 5 5 4 3 3 2 2 1 3 4
5 4 4 5 7 5 6 6 5 4 5 2 1 4 6 4 7 10 12 14 14 13 14 13 13 12 11 10 9 8 8 7 5 6 6 5 4 3 2 2 2 1 1 2
6 5 5 6 5 4 4 5 5 5 5 1 4 4 5 6 12 12 13 14 14 14 13 12 11 10 9 9 9 9 8 7 6 6 6 6 6 5 4 3 3 1 0 0
5 6 4 2 1 2 6 6 4 4 4 4 3 3 8 11 11 13 15 14 13 13 13 12 11 11 11 11 10 9 9 8 7 7 6 7 7 6 6 5 4 3 2 1
3 6 4 3 5 4 3 9 7 5 4 3 1 4 7 8 8 8 10 10 12 12 12 12 13 13 12 13 11 10 10 8 8 7 7 6 6 5 4 5 4 4 3 3
6 6 5 2 3 6 3 3 8 7 2 1 3 3 5 2 5 6 8 9 10 11 12 12 12 12 12 12 11 12 11 9 8 8 7 6 6 5 5 4 4 3 3 3
6 3 4 2 3 2 6 7 6 5 4 0 3 2 4 3 4 5 8 10 10 10 10 10 10 10 10 10 10 10 10 10 9 8 7 6 6 6 5 4 4 4 4 3
5 4 5 3 1 2 2 3 5 5 6 6 2 6 6 8 7 7 7 9 10 10 10 9 8 8 8 8 8 8 9 8 8 7 6 6 5 5 5 4 4 4 4 4
2 5 2 5 5 4 4 5 6 5 3 5 5 6 5 8 7 7 7 7 8 9 9 8 8 7 7 7 7 7 7 8 8 7 7 6 6 6 5 5 5 5 4 4
4 6 2 6 6 5 2 1 4 5 5 4 4 5 2 3 4 6 7 7 8 9 8 7 8 8 7 7 7 6 7 7 7 6 6 6 5 6 6 6 5 5 5 4
5 5 6 8 7 4 2 2 1 5 3 3 6 5 2 3 5 5 6 8 8 8 8 8 8 7 7 7 7 7 6 7 7 6 6 6 6 6 6 5 4 4 4 5
6 4 2 4 5 2 1 3 2 3 6 6 7 7 9 8 8 8 8 8 8 8 8 8 8 7 6 5 5 6 6 6 7 6 6 6 5 5 4 4 4 3 4 5
4 4 3 3 2 2 2 3 2 2 3 4 4 4 6 6 6 7 8 9 9 8 9 9 8 8 7 7 6 6 6 6 6 6 5 4 4 4 4 4 4 4 4 4
3 5 3 2 4 4 4 4 3 2 2 5 6 6 4 6 7 8 9 9 9 8 8 8 9 8 8 8 7 6 6 5 6 6 5 5 4 4 4 4 4 4 4 3
5 4 4 1 3 4 8 4 3 3 1 0 3 5 8 9 7 5 7 8 8 7 7 7 7 7 7 8 7 6 5 5 5 5 4 5 5 5 4 4 4 4 3 4
7 7 4 4 2 5 6 4 1 3 2 1 4 5 7 8 8 4 1 5 6 6 6 6 7 6 7 7 8 7 6 5 5 5 5 5 5 5 4 5 5 4 4 4
5 6 6 4 3 5 6 5 1 6 0 3 5 6 7 7 5 3 3 3 4 4 4 5 5 5 5 5 6 7 6 6 6 6 6 5 5 5 5 5 4 3 3 4
3 3 4 4 4 6 6 6 3 4 6 3 4 6 7 6 6 6 4 4 4 4 4 4 5 5 5 5 7 7 6 7 7 5 5 4 5 5 4 4 3 2 2 2
5 4 4 5 4 7 5 3 3 5 3 3 4 5 7 6 5 5 5 5 4 4 4 4 4 3 3 4 6 6 5 6 4 4 4 4 4 4 4 4 3 3 3 3
3 6 6 6 7 5 1 3 2 4 4 4 5 5 7 6 5 5 5 4 4 4 4 4 4 3 2 3 5 5 5 4 4 5 5 5 4 4 4 5 5 3 3 3
3 1 3 1 1 2 3 4 4 4 4 4 5 6 6 5 4 4 4 3 3 2 3 3 3 2 1 2 3 4 4 3 4 5 5 4 4 4 4 4 4 4 4 4
3 2 2 1 2 5 6 4 2 3 4 5 5 5 5 5 3 3 3 3 3 2 2 3 3 3 3 3 3 3 3 3 4 5 5 5 5 5 4 4 4 5 5 6
2 2 3 4 4 2 3 4 2 4 3 3 5 4 3 3 3 3 3 3 3 2 2 2 2 2 3 3 3 3 3 4 5 5 5 5 4 4 4 4 3 4 5 6
Wind_Direction
9 87 201 214 196 196 192 185 194 206 181 135 154 168 174 174 169 167 166 168 172 178 173 164 160 154 149 145 142 139 134 137 126 118 122 123 127 126 113 125 130 127 130 135
22 249 225 218 223 221 200 162 160 173 163 134 140 167 188 183 183 177 170 172 173 165 160 163 161 159 158 159 155 149 149 150 149 155 149 148 146 144 145 129 125 126 129 135
208 234 212 192 218 217 219 172 168 171 136 87 106 52 208 207 182 175 172 172 171 170 171 172 168 171 166 166 166 162 162 165 166 151 125 117 96 78 72 98 140 146 141 140
241 240 217 219 223 185 218 194 172 156 120 180 140 176 243 210 196 183 181 179 182 177 171 173 174 175 176 176 169 161 165 171 166 150 141 144 150 158 179 170 157 145 141 144
250 228 205 217 230 187 204 175 163 159 131 93 88 132 268 202 206 201 189 185 185 182 177 178 180 180 178 173 169 168 167 174 167 156 154 148 150 164 159 131 126 118 105 148
255 257 211 205 223 169 141 78 55 59 77 84 225 153 248 213 208 198 193 189 186 183 182 182 180 172 173 171 170 171 170 177 174 166 160 156 159 157 144 142 144 153 139 187
303 294 265 186 93 1 97 91 41 10 17 247 232 170 236 226 205 191 189 190 186 180 179 180 175 175 175 176 177 174 173 179 179 172 170 171 169 164 164 169 170 173 180 197
207 276 255 201 172 184 171 136 155 189 214 269 289 216 252 230 194 182 178 174 173 175 178 180 181 181 182 181 179 177 177 180 179 177 179 176 173 170 173 175 173 181 194 203
183 240 270 233 176 149 144 168 168 142 141 85 288 290 328 50 130 150 159 157 165 176 179 181 181 182 184 182 182 181 178 180 182 181 176 174 175 174 179 182 179 189 196 197
164 221 283 287 43 7 158 161 95 106 132 212 301 275 232 212 179 164 164 165 171 173 175 176 180 180 180 179 180 179 179 183 182 180 182 184 182 180 180 179 185 190 196 194
141 155 299 1 145 220 28 75 105 119 146 148 208 270 229 197 186 174 171 164 164 162 164 165 170 173 164 159 165 172 178 178 178 181 183 180 183 187 184 187 196 196 197 196
136 132 231 259 254 194 162 161 142 147 201 159 166 254 247 183 181 174 167 154 156 159 159 157 156 152 152 155 158 162 167 172 177 176 174 182 184 184 190 198 202 198 200 205
120 111 90 334 336 2 59 153 143 131 122 147 157 249 257 162 155 164 157 147 146 146 145 146 146 149 152 155 158 161 167 171 171 166 167 178 183 184 196 205 204 197 197 201
109 106 156 191 215 233 263 293 114 119 141 188 200 203 231 177 165 161 149 142 141 146 145 148 152 156 159 161 162 165 170 169 163 162 171 183 192 194 200 201 198 197 194 193
89 108 169 208 221 214 232 261 251 186 185 184 209 189 206 192 174 160 144 130 131 142 146 156 161 158 155 155 160 163 169 168 165 164 174 191 196 192 188 194 200 200 196 198
77 108 63 339 340 13 323 278 261 236 186 172 159 214 220 184 142 130 138 142 144 153 163 164 163 159 159 162 167 163 162 163 155 160 174 178 175 182 193 205 203 201 206 205
88 108 94 276 316 27 296 243 209 233 208 170 183 210 165 136 146 158 158 157 155 159 159 165 171 172 172 168 169 172 173 161 159 169 176 175 176 184 197 201 194 206 212 208
134 113 126 141 47 228 244 253 150 118 31 170 166 164 156 157 157 149 149 154 158 157 155 163 173 179 175 166 162 165 162 159 163 172 185 190 190 200 202 199 207 214 207 209
146 137 123 124 178 275 292 290 173 129 348 21 130 141 145 133 91 52 137 151 161 165 164 167 175 179 170 163 162 156 164 172 172 183 196 202 201 206 206 211 215 214 210 222
80 108 122 131 158 227 255 283 224 110 17 289 132 140 149 120 123 216 215 159 146 148 160 158 157 151 158 168 156 153 169 177 192 200 201 199 195 200 212 215 212 212 213 220
60 72 134 160 197 252 261 287 43 127 213 245 148 140 136 146 176 190 162 137 131 138 143 137 134 149 172 168 154 166 182 198 204 195 188 193 198 201 199 194 194 191 200 205
175 160 180 158 186 245 285 40 138 199 192 134 112 112 116 131 141 140 132 129 122 113 111 124 134 146 155 153 156 171 200 211 190 178 187 199 200 199 193 184 194 197 195 205
172 182 180 183 210 240 295 125 155 144 119 111 107 102 109 115 130 128 125 122 124 127 121 123 130 142 152 166 168 191 217 201 181 180 196 205 201 199 189 187 197 203 203 211
319 49 98 56 303 332 27 62 59 71 98 107 112 108 102 105 121 122 116 110 107 115 131 131 128 139 197 208 200 211 218 195 185 196 207 206 201 203 200 198 200 202 209 215
277 11 73 30 313 2 360 10 49 58 76 91 92 101 112 115 119 132 137 141 143 136 143 145 153 178 214 219 219 222 209 186 196 209 213 208 204 204 205 207 215 218 224 221
268 187 164 222 241 203 274 314 14 58 60 98 95 87 98 124 139 137 153 168 161 158 155 150 164 190 218 219 230 235 220 203 205 215 219 214 210 208 209 210 239 254 245 251
Height
1490 1498 1506 1503 1501 1503 1505 1511 1514 1508 1500 1505 1511 1512 1512 1513 1515 1517 1519 1520 1521 1522 1524 1525 1527 1528 1529 1530 1531 1532 1533 1534 1534 1535 1535 1536 1536 1537 1537 1538 1538 1538 1539 1539
1497 1502 1494 1492 1494 1498 1502 1509 1511 1505 1499 1505 1513 1515 1511 1511 1512 1513 1515 1517 1519 1521 1523 1525 1526 1527 1528 1530 1531 1532 1533 1534 1535 1535 1536 1537 1537 1538 1538 1539 1539 1539 1540 1540
1500 1494 1487 1491 1494 1500 1502 1507 1508 1509 1505 1506 1515 1522 1516 1511 1511 1512 1514 1515 1517 1519 1520 1523 1524 1526 1527 1528 1530 1531 1532 1533 1534 1535 1536 1537 1537 1538 1538 1539 1539 1540 1540 1541
1492 1486 1487 1491 1493 1494 1504 1494 1497 1503 1514 1524 1520 1540 1522 1513 1511 1511 1512 1513 1515 1517 1518 1520 1522 1524 1525 1527 1529 1530 1531 1532 1534 1535 1535 1536 1536 1537 1537 1538 1539 1540 1540 1541
1491 1484 1486 1491 1489 1488 1493 1488 1494 1500 1512 1524 1522 1535 1528 1514 1515 1509 1508 1509 1511 1514 1515 1517 1519 1521 1523 1526 1527 1529 1530 1532 1533 1534 1535 1535 1536 1536 1537 1538 1539 1539 1540 1540
1484 1480 1481 1482 1480 1482 1484 1493 1500 1509 1521 1538 1526 1532 1530 1516 1507 1503 1504 1506 1508 1510 1513 1515 1517 1520 1522 1524 1526 1528 1529 1530 1532 1533 1534 1534 1535 1536 1537 1537 1538 1538 1539 1539
1491 1483 1477 1477 1484 1485 1488 1510 1533 1538 1547 1542 1522 1526 1522 1499 1494 1495 1497 1501 1504 1507 1510 1513 1515 1518 1520 1522 1524 1526 1527 1529 1530 1531 1532 1533 1534 1535 1535 1536 1537 1537 1538 1538
1503 1502 1481 1476 1482 1489 1491 1505 1532 1545 1549 1539 1523 1524 1508 1489 1489 1492 1495 1499 1503 1506 1508 1510 1513 1515 1518 1520 1522 1524 1525 1527 1529 1530 1531 1532 1533 1533 1534 1535 1535 1536 1536 1537
1500 1499 1477 1473 1473 1479 1491 1501 1503 1524 1531 1539 1530 1515 1501 1490 1491 1493 1496 1499 1502 1504 1506 1508 1511 1513 1516 1518 1520 1522 1523 1525 1527 1528 1529 1530 1531 1532 1533 1533 1534 1535 1535 1535
1484 1494 1481 1474 1473 1476 1481 1489 1508 1523 1539 1546 1534 1524 1519 1502 1497 1494 1495 1496 1499 1502 1504 1507 1510 1512 1514 1516 1518 1521 1522 1524 1525 1527 1528 1529 1530 1531 1531 1532 1532 1533 1534 1534
1479 1493 1490 1482 1484 1488 1487 1493 1504 1519 1524 1540 1545 1531 1497 1495 1492 1493 1493 1494 1496 1499 1502 1505 1508 1510 1512 1514 1517 1519 1521 1522 1524 1525 1527 1528 1529 1530 1530 1530 1531 1532 1532 1532
1478 1492 1500 1490 1478 1475 1480 1488 1501 1518 1524 1527 1534 1526 1487 1488 1488 1490 1492 1493 1495 1497 1500 1503 1506 1509 1511 1513 1515 1517 1519 1521 1522 1524 1525 1526 1527 1528 1528 1529 1529 1530 1530 1530
1478 1494 1510 1506 1497 1485 1484 1485 1491 1503 1515 1524 1530 1518 1487 1487 1488 1489 1490 1492 1494 1497 1500 1502 1505 1507 1509 1511 1514 1516 1518 1519 1521 1522 1524 1525 1526 1526 1526 1527 1527 1527 1528 1528
1472 1491 1503 1511 1504 1493 1490 1486 1487 1499 1516 1517 1512 1506 1494 1490 1488 1489 1490 1491 1494 1497 1499 1501 1503 1506 1508 1510 1512 1514 1516 1518 1519 1520 1522 1523 1523 1524 1524 1525 1525 1525 1526 1526
1474 1490 1489 1489 1485 1483 1484 1484 1485 1491 1498 1506 1501 1498 1492 1487 1486 1487 1489 1491 1494 1496 1498 1500 1502 1504 1507 1509 1511 1513 1514 1515 1517 1519 1520 1521 1522 1522 1522 1523 1523 1523 1523 1523
1477 1488 1489 1490 1482 1481 1483 1481 1482 1484 1486 1490 1492 1493 1483 1482 1484 1486 1488 1490 1492 1494 1496 1499 1501 1503 1505 1508 1510 1512 1512 1514 1515 1517 1518 1519 1519 1519 1520 1520 1520 1520 1520 1520
1482 1489 1498 1503 1490 1486 1495 1483 1481 1482 1481 1484 1491 1488 1482 1484 1485 1485 1487 1488 1489 1491 1493 1496 1498 1499 1502 1504 1508 1510 1511 1512 1513 1514 1515 1516 1516 1517 1517 1517 1517 1517 1517 1517
1482 1491 1501 1505 1499 1509 1492 1474 1473 1478 1480 1477 1478 1478 1479 1481 1483 1485 1486 1487 1488 1490 1491 1493 1496 1498 1500 1502 1505 1508 1509 1510 1511 1512 1512 1513 1513 1514 1514 1514 1514 1514 1514 1514
1473 1485 1500 1509 1510 1502 1485 1474 1472 1478 1484 1477 1477 1478 1479 1480 1483 1486 1487 1487 1487 1489 1491 1492 1494 1497 1499 1500 1502 1504 1506 1507 1508 1508 1509 1510 1510 1510 1511 1511 1511 1511 1511 1511
1474 1479 1495 1505 1507 1508 1489 1472 1468 1474 1489 1478 1476 1477 1479 1480 1489 1489 1487 1487 1488 1490 1491 1492 1494 1496 1497 1498 1500 1502 1503 1504 1504 1505 1506 1507 1507 1507 1508 1508 1508 1508 1508 1508
1485 1489 1496 1502 1504 1496 1478 1470 1469 1488 1490 1477 1475 1475 1476 1479 1482 1484 1485 1486 1487 1488 1490 1491 1492 1494 1495 1496 1498 1499 1500 1500 1501 1503 1503 1504 1504 1504 1504 1505 1505 1505 1505 1505
1487 1493 1497 1500 1504 1499 1473 1471 1477 1479 1474 1475 1475 1475 1476 1477 1480 1482 1483 1484 1485 1487 1488 1489 1490 1491 1493 1494 1495 1496 1496 1497 1498 1499 1500 1500 1500 1500 1501 1501 1501 1501 1502 1501
1482 1483 1486 1489 1489 1477 1472 1472 1473 1473 1474 1475 1475 1476 1476 1478 1480 1481 1482 1483 1484 1485 1487 1487 1488 1490 1491 1492 1492 1493 1493 1494 1495 1495 1496 1496 1496 1497 1497 1497 1497 1497 1498 1497
1478 1476 1479 1482 1479 1476 1474 1473 1474 1474 1475 1475 1476 1477 1478 1479 1480 1481 1481 1482 1483 1484 1485 1486 1486 1487 1488 1489 1489 1490 1490 1491 1491 1491 1491 1492 1492 1492 1492 1493 1493 1493 1493 1492
1479 1477 1480 1482 1479 1477 1475 1475 1475 1475 1475 1475 1476 1477 1478 1479 1480 1480 1481 1482 1482 1483 1483 1484 1484 1484 1485 1485 1486 1486 1487 1487 1487 1487 1487 1487 1487 1487 1488 1488 1488 1489 1489 1489
1477 1478 1481 1483 1478 1478 1478 1477 1476 1475 1475 1475 1476 1477 1478 1479 1479 1479 1480 1480 1481 1481 1481 1481 1481 1482 1482 1482 1482 1482 1483 1483 1482 1482 1483 1482 1483 1483 1483 1483 1483 1484 1484 1484